Weather History for Wausau, WI

Change the Weather History Date:

Monday, November 8, 2010

  Actual Average Record
Temperature  
Mean Temperature 49 °F 36 °F  
Max Temperature 63 °F 44 °F 71 °F (1999)
Min Temperature 34 °F 29 °F 2 °F (1991)
Degree Days  
Heating Degree Days 16 29  
Month to date heating degree days 203 216  
Since 1 July heating degree days 973 1100  
Cooling Degree Days 0 0  
Month to date cooling degree days 0 0  
Year to date cooling degree days 560 407  
Moisture  
Dew Point 34 °F    
Average Humidity 60    
Maximum Humidity 86    
Minimum Humidity 34    
Precipitation  
Precipitation 0.00 in 0.07 in 1.52 in (1945)
Month to date precipitation 0.04 0.57  
Year to date precipitation 34.08 29.62  
Snow  
Snow 0.00 in 0.10 in 2.00 in (1957)
Month to date snowfall T 0.9  
Since 1 July snowfall T 2.3  
Since 1 September snowfall T 2.3  
Snow Depth 0.00 in    
Sea Level Pressure  
Sea Level Pressure 29.90 in    
Wind  
Wind Speed 8 mph (ESE)    
Max Wind Speed 18 mph    
Max Gust Speed 23 mph    
Visibility 9 miles    
Events      
T = Trace of Precipitation, MM = Missing Value Source: NWS Daily Summary

Daily Weather History Graph

Daily Weather History Graph

Search for Another Location

Airport:

Trip Planner

Search our weather history database for the weather conditions in past years. The results will help you decide how hot, cold, wet, or windy it might be!

Date:

Astronomy

Nov. 08, 2010 Rise Set
Actual Time 6:46 AM CST 4:37 PM CST
Civil Twilight 6:15 AM CST 5:08 PM CST
Nautical Twilight 5:40 AM CST 5:43 PM CST
Astronomical Twilight 5:05 AM CST 6:17 PM CST
Moon 9:41 AM CST (11/8) 6:26 PM CST (11/8)
Length of Visible Light 10h 53m
Length of Day
9h 51m
Waxing Crescent, 8% of the Moon is Illuminated
Nov 8
Waxing Crescent
Nov 13
First Quarter
Nov 21
Full
Nov 28
Last Quarter
Dec 5
New

Hourly Weather History & Observations

Time (CST) Temp. Windchill Dew Point Humidity Pressure Visibility Wind Dir Wind Speed Gust Speed Precip Events Conditions
12:54 AM 39.0 °F 36.8 °F 28.9 °F 67% 30.00 in 10.0 mi ESE 3.5 mph - N/A   Clear
1:54 AM 36.0 °F 33.3 °F 30.0 °F 79% 29.99 in 10.0 mi SSE 3.5 mph - N/A   Clear
2:54 AM 37.0 °F 34.5 °F 28.9 °F 73% 29.96 in 10.0 mi SE 3.5 mph - N/A   Clear
3:54 AM 36.0 °F 30.3 °F 28.9 °F 76% 29.95 in 10.0 mi ESE 6.9 mph - N/A   Clear
4:54 AM 35.1 °F 31.0 °F 28.9 °F 78% 29.97 in 9.0 mi SE 4.6 mph - N/A   Clear
5:54 AM 36.0 °F 29.0 °F 28.9 °F 76% 29.94 in 9.0 mi East 9.2 mph - N/A   Clear
6:54 AM 34.0 °F 29.8 °F 28.9 °F 82% 29.96 in 7.0 mi SE 4.6 mph - N/A   Clear
8:54 AM 43.0 °F 37.7 °F 33.1 °F 68% 29.94 in 8.0 mi ESE 9.2 mph - N/A   Clear
9:54 AM 50.0 °F - 34.0 °F 54% 29.92 in 10.0 mi SE 10.4 mph - N/A   Clear
11:54 AM 59.0 °F - 34.0 °F 39% 29.86 in 10.0 mi ESE 10.4 mph - N/A   Clear
12:54 PM 61.0 °F - 34.0 °F 36% 29.83 in 10.0 mi ESE 12.7 mph - N/A   Clear
2:54 PM 62.1 °F - 35.1 °F 37% 29.81 in 10.0 mi SE 13.8 mph 20.7 mph N/A   Clear
3:54 PM 61.0 °F - 35.1 °F 38% 29.81 in 10.0 mi SE 11.5 mph - N/A   Clear
4:54 PM 55.0 °F - 36.0 °F 49% 29.83 in 10.0 mi ESE 8.1 mph - N/A   Clear
5:54 PM 52.0 °F - 39.9 °F 63% 29.85 in 10.0 mi East 10.4 mph - N/A   Clear
6:54 PM 50.0 °F - 41.0 °F 71% 29.86 in 8.0 mi ESE 9.2 mph - N/A   Clear
7:54 PM 46.9 °F - 39.9 °F 77% 29.87 in 7.0 mi ESE 5.8 mph - N/A   Clear
8:54 PM 44.1 °F 40.1 °F 37.9 °F 79% 29.88 in 7.0 mi East 6.9 mph - N/A   Clear
9:54 PM 43.0 °F 38.8 °F 37.0 °F 80% 29.88 in 7.0 mi East 6.9 mph - N/A   Clear
10:54 PM 41.0 °F 38.0 °F 37.0 °F 86% 29.89 in 6.0 mi ESE 4.6 mph - N/A   Clear
11:54 PM 39.9 °F 35.8 °F 36.0 °F 86% 29.89 in 5.0 mi East 5.8 mph - N/A   Clear